^^
Paulen-Weather Station Historical Data
 
Daily Summary for September 15, 2019 Units:  Metric    English   Both
Daily Weekly Monthly Yearly Custom
  Current: High: Low: Average:
Temperature: 12 °C 14 °C 11 °C 13 °C
Dew Point: 7 °C 13 °C 6 °C 9.1 °C
Humidity: 71% 94% 60% 78%
Wind Speed: 31km/h 45km/h 8km/h 27.9km/h
Wind Gust: 42km/h 76km/h - -
WindWNW - - WNW
Pressure: 1006.98 hPa 1011.04 hPa 1005.42 hPa -
Precipitation: 10.8 mm      
Historical Graphs
 
 
Tabular Data for September 15, 2019
Time Temperature Dew Point Pressure Wind Wind Speed Wind Gust Humidity Rainfall Rate (Hourly) solar
00:04 14 °C 13 °C 1011.04 hPa NW 27 km/h 48 km/h 89% 0.99 mm 0 W/m2
00:09 14 °C 13 °C 1010.97 hPa NW 30 km/h 35 km/h 89% 0.99 mm 0 W/m2
00:14 14 °C 13 °C 1010.87 hPa WNW 34 km/h 34 km/h 90% 1.4 mm 0 W/m2
00:19 14 °C 13 °C 1010.77 hPa WNW 32 km/h 47 km/h 90% 1.6 mm 0 W/m2
00:24 14 °C 13 °C 1010.63 hPa NW 32 km/h 34 km/h 90% 2.01 mm 0 W/m2
00:29 14 °C 13 °C 1010.53 hPa WNW 35 km/h 43 km/h 91% 2.21 mm 0 W/m2
00:34 14 °C 13 °C 1010.5 hPa WNW 34 km/h 48 km/h 91% 2.21 mm 0 W/m2
00:39 14 °C 13 °C 1010.19 hPa NNW 31 km/h 47 km/h 92% 0.61 mm 0 W/m2
00:44 14 °C 13 °C 1010.26 hPa WNW 33 km/h 43 km/h 92% 0.61 mm 0 W/m2
00:49 14 °C 13 °C 1009.92 hPa NW 35 km/h 43 km/h 92% 0.41 mm 0 W/m2
00:54 14 °C 13 °C 1009.62 hPa NW 31 km/h 42 km/h 93% 0.61 mm 0 W/m2
00:59 14 °C 13 °C 1009.62 hPa WNW 33 km/h 39 km/h 93% 0.79 mm 0 W/m2
01:04 14 °C 13 °C 1009.58 hPa WNW 34 km/h 35 km/h 93% 3 mm 0 W/m2
01:09 14 °C 13 °C 1009.52 hPa W 39 km/h 48 km/h 93% 3.2 mm 0 W/m2
01:14 14 °C 13 °C 1009.38 hPa WNW 32 km/h 47 km/h 93% 3 mm 0 W/m2
01:19 14 °C 13 °C 1009.21 hPa WNW 31 km/h 39 km/h 93% 2.79 mm 0 W/m2
01:24 14 °C 13 °C 1009.18 hPa NW 33 km/h 43 km/h 94% 2.79 mm 0 W/m2
01:29 14 °C 13 °C 1008.91 hPa WNW 38 km/h 48 km/h 93% 3 mm 0 W/m2
01:34 14 °C 13 °C 1008.74 hPa NW 32 km/h 45 km/h 94% 3 mm 0 W/m2
01:39 14 °C 13 °C 1008.67 hPa NNW 31 km/h 35 km/h 94% 3 mm 0 W/m2
01:44 14 °C 13 °C 1008.53 hPa WNW 32 km/h 39 km/h 94% 3.2 mm 0 W/m2
01:49 14 °C 13 °C 1008.53 hPa WNW 36 km/h 37 km/h 94% 3 mm 0 W/m2
01:54 14 °C 13 °C 1008.43 hPa WNW 38 km/h 43 km/h 93% 3.2 mm 0 W/m2
01:59 14 °C 13 °C 1008.47 hPa WNW 34 km/h 42 km/h 93% 3.2 mm 0 W/m2
02:04 14 °C 13 °C 1008.33 hPa NW 33 km/h 42 km/h 94% 3.2 mm 0 W/m2
02:09 14 °C 13 °C 1008.23 hPa NW 33 km/h 39 km/h 94% 3.2 mm 0 W/m2
02:14 14 °C 13 °C 1008.13 hPa NW 30 km/h 37 km/h 94% 3.2 mm 0 W/m2
02:19 14 °C 13 °C 1007.76 hPa WNW 30 km/h 35 km/h 94% 3.2 mm 0 W/m2
02:24 14 °C 13 °C 1007.62 hPa NW 26 km/h 37 km/h 94% 3.2 mm 0 W/m2
02:29 14 °C 13 °C 1007.59 hPa WNW 27 km/h 34 km/h 94% 2.79 mm 0 W/m2
02:34 14 °C 13 °C 1007.55 hPa NW 29 km/h 39 km/h 94% 2.79 mm 0 W/m2
02:39 14 °C 13 °C 1007.55 hPa WNW 35 km/h 45 km/h 94% 2.79 mm 0 W/m2
02:44 14 °C 13 °C 1007.52 hPa E 28 km/h 39 km/h 94% 2.59 mm 0 W/m2
02:49 14 °C 13 °C 1007.32 hPa W 28 km/h 32 km/h 94% 2.79 mm 0 W/m2
02:54 14 °C 13 °C 1007.25 hPa NW 24 km/h 35 km/h 94% 2.79 mm 0 W/m2
02:59 14 °C 13 °C 1007.11 hPa WNW 25 km/h 29 km/h 94% 2.59 mm 0 W/m2
03:04 14 °C 13 °C 1007.01 hPa NW 28 km/h 32 km/h 94% 2.39 mm 0 W/m2
03:09 14 °C 13 °C 1006.87 hPa NW 22 km/h 35 km/h 94% 2.39 mm 0 W/m2
03:14 14 °C 13 °C 1006.77 hPa NW 22 km/h 24 km/h 94% 2.39 mm 0 W/m2
03:19 14 °C 13 °C 1006.81 hPa NW 25 km/h 34 km/h 94% 2.21 mm 0 W/m2
03:24 14 °C 13 °C 1006.81 hPa W 25 km/h 32 km/h 94% 2.21 mm 0 W/m2
03:29 14 °C 13 °C 1006.71 hPa WNW 24 km/h 32 km/h 94% 2.01 mm 0 W/m2
03:34 14 °C 13 °C 1006.77 hPa W 21 km/h 26 km/h 94% 1.8 mm 0 W/m2
03:39 14 °C 13 °C 1006.74 hPa WNW 17 km/h 32 km/h 93% 1.8 mm 0 W/m2
03:44 14 °C 13 °C 1006.64 hPa W 17 km/h 24 km/h 93% 1.6 mm 0 W/m2
03:49 14 °C 13 °C 1006.81 hPa WNW 17 km/h 24 km/h 92% 1.4 mm 0 W/m2
03:54 14 °C 12 °C 1006.84 hPa WNW 19 km/h 23 km/h 92% 0.99 mm 0 W/m2
03:59 13 °C 12 °C 1006.94 hPa WNW 13 km/h 27 km/h 92% 0.79 mm 0 W/m2
04:04 13 °C 12 °C 1006.98 hPa WNW 15 km/h 16 km/h 93% 0.79 mm 0 W/m2
04:09 13 °C 12 °C 1006.94 hPa W 22 km/h 29 km/h 92% 0.79 mm 0 W/m2
04:14 13 °C 12 °C 1006.94 hPa WNW 14 km/h 29 km/h 93% 0.79 mm 0 W/m2
04:19 13 °C 12 °C 1006.91 hPa WNW 9 km/h 16 km/h 93% 0.79 mm 0 W/m2
04:24 13 °C 12 °C 1006.91 hPa WNW 10 km/h 11 km/h 94% 0.61 mm 0 W/m2
04:29 13 °C 12 °C 1006.77 hPa WNW 8 km/h 13 km/h 94% 0.79 mm 0 W/m2
04:34 13 °C 12 °C 1006.81 hPa WNW 12 km/h 10 km/h 94% 0.99 mm 0 W/m2
04:39 13 °C 12 °C 1006.91 hPa WNW 17 km/h 16 km/h 93% 0.79 mm 0 W/m2
04:44 13 °C 12 °C 1006.87 hPa WNW 17 km/h 19 km/h 93% 0.99 mm 0 W/m2
04:49 13 °C 11 °C 1006.94 hPa WNW 22 km/h 32 km/h 92% 1.19 mm 0 W/m2
04:54 12 °C 11 °C 1006.91 hPa WNW 21 km/h 32 km/h 92% 1.19 mm 0 W/m2
04:59 12 °C 11 °C 1006.81 hPa WNW 17 km/h 23 km/h 92% 1.19 mm 0 W/m2
05:04 12 °C 11 °C 1006.87 hPa WNW 16 km/h 21 km/h 92% 1.19 mm 0 W/m2
05:09 12 °C 10 °C 1006.94 hPa WNW 15 km/h 19 km/h 91% 0.99 mm 0 W/m2
05:14 12 °C 10 °C 1006.94 hPa WNW 17 km/h 19 km/h 91% 0.99 mm 0 W/m2
05:19 12 °C 10 °C 1006.91 hPa WNW 8 km/h 19 km/h 91% 0.79 mm 0 W/m2
05:24 12 °C 11 °C 1006.87 hPa W 10 km/h 13 km/h 93% 0.79 mm 0 W/m2
05:29 12 °C 11 °C 1006.77 hPa NW 13 km/h 16 km/h 94% 0.79 mm 0 W/m2
05:34 12 °C 11 °C 1006.71 hPa NW 17 km/h 19 km/h 92% 0.79 mm 0 W/m2
05:39 12 °C 10 °C 1006.71 hPa NW 17 km/h 19 km/h 91% 0.61 mm 0 W/m2
05:44 11 °C 10 °C 1006.5 hPa NW 17 km/h 23 km/h 91% 0.61 mm 0 W/m2
05:49 11 °C 10 °C 1006.3 hPa WNW 19 km/h 21 km/h 91% 0.41 mm 0 W/m2
05:54 11 °C 10 °C 1006.27 hPa WNW 16 km/h 23 km/h 91% 0.2 mm 0 W/m2
05:59 11 °C 10 °C 1006.16 hPa WNW 11 km/h 24 km/h 92% 0.2 mm 0 W/m2
06:04 11 °C 10 °C 1006.1 hPa WNW 17 km/h 14 km/h 91% 0.2 mm 0 W/m2
06:09 11 °C 10 °C 1006.1 hPa NW 18 km/h 21 km/h 92% 0.2 mm 0 W/m2
06:14 11 °C 10 °C 1005.93 hPa WSW 18 km/h 24 km/h 92% 0.2 mm 0 W/m2
06:19 11 °C 10 °C 1006.03 hPa WNW 12 km/h 27 km/h 92% 0.2 mm 0 W/m2
06:24 11 °C 10 °C 1005.96 hPa W 18 km/h 14 km/h 92% 0.2 mm 0 W/m2
06:29 12 °C 10 °C 1005.93 hPa WNW 18 km/h 35 km/h 92% 0.2 mm 0 W/m2
06:34 12 °C 10 °C 1005.79 hPa WNW 21 km/h 23 km/h 91% 0 mm 0 W/m2
06:39 12 °C 10 °C 1005.76 hPa WNW 17 km/h 26 km/h 91% 0 mm 0 W/m2
06:44 12 °C 10 °C 1005.76 hPa WNW 22 km/h 23 km/h 90% 0 mm 0 W/m2
06:49 12 °C 10 °C 1005.66 hPa WNW 20 km/h 35 km/h 90% 0 mm 0 W/m2
06:54 12 °C 10 °C 1005.76 hPa NNW 19 km/h 32 km/h 88% 0 mm 0 W/m2
06:59 12 °C 10 °C 1005.76 hPa WNW 21 km/h 24 km/h 87% 0 mm 0 W/m2
07:04 12 °C 10 °C 1005.45 hPa WNW 25 km/h 26 km/h 86% 0 mm 5 W/m2
07:09 12 °C 10 °C 1005.42 hPa WNW 23 km/h 32 km/h 85% 0 mm 7 W/m2
07:14 12 °C 10 °C 1005.55 hPa WNW 16 km/h 32 km/h 85% 0 mm 11 W/m2
07:19 12 °C 10 °C 1005.69 hPa WNW 14 km/h 24 km/h 85% 0 mm 12 W/m2
07:24 12 °C 9 °C 1005.79 hPa NW 16 km/h 19 km/h 85% 0 mm 14 W/m2
07:29 12 °C 9 °C 1005.96 hPa WNW 16 km/h 19 km/h 85% 0 mm 14 W/m2
07:34 12 °C 9 °C 1006.1 hPa WNW 19 km/h 21 km/h 85% 0 mm 12 W/m2
07:39 12 °C 9 °C 1006.1 hPa WNW 20 km/h 26 km/h 86% 0 mm 14 W/m2
07:44 11 °C 9 °C 1006.06 hPa WNW 16 km/h 24 km/h 87% 0 mm 33 W/m2
07:49 11 °C 9 °C 1005.86 hPa WNW 18 km/h 21 km/h 88% 0 mm 37 W/m2
07:54 11 °C 9 °C 1005.86 hPa WNW 21 km/h 24 km/h 87% 0 mm 44 W/m2
07:59 11 °C 9 °C 1006.06 hPa WNW 18 km/h 24 km/h 86% 0 mm 47 W/m2
08:04 11 °C 9 °C 1006.06 hPa W 20 km/h 23 km/h 85% 0 mm 56 W/m2
08:09 11 °C 9 °C 1006.1 hPa WNW 20 km/h 21 km/h 85% 0 mm 54 W/m2
08:14 11 °C 9 °C 1006.03 hPa WNW 17 km/h 24 km/h 85% 0 mm 60 W/m2
08:19 11 °C 9 °C 1006.1 hPa WNW 19 km/h 23 km/h 85% 0 mm 121 W/m2
08:24 11 °C 8 °C 1006.23 hPa W 20 km/h 26 km/h 84% 0 mm 125 W/m2
08:29 11 °C 9 °C 1006.27 hPa WNW 17 km/h 26 km/h 84% 0 mm 155 W/m2
08:34 11 °C 9 °C 1006.16 hPa WNW 21 km/h 19 km/h 84% 0 mm 155 W/m2
08:39 11 °C 9 °C 1006.23 hPa WNW 15 km/h 26 km/h 83% 0 mm 128 W/m2
08:44 11 °C 8 °C 1006.27 hPa WNW 18 km/h 21 km/h 82% 0 mm 134 W/m2
08:49 11 °C 8 °C 1006.27 hPa WNW 17 km/h 24 km/h 83% 0 mm 116 W/m2
08:54 11 °C 8 °C 1006.3 hPa WNW 22 km/h 21 km/h 82% 0 mm 163 W/m2
08:59 11 °C 8 °C 1006.47 hPa WNW 17 km/h 35 km/h 81% 0 mm 176 W/m2
09:04 12 °C 9 °C 1006.54 hPa W 14 km/h 19 km/h 81% 0 mm 193 W/m2
09:09 12 °C 8 °C 1006.57 hPa WNW 23 km/h 24 km/h 80% 0 mm 223 W/m2
09:14 12 °C 8 °C 1006.57 hPa WNW 21 km/h 27 km/h 79% 0 mm 236 W/m2
09:19 12 °C 8 °C 1006.67 hPa WNW 20 km/h 29 km/h 79% 0 mm 260 W/m2
09:24 12 °C 9 °C 1006.81 hPa WNW 21 km/h 24 km/h 79% 0 mm 192 W/m2
09:29 12 °C 8 °C 1006.81 hPa WNW 22 km/h 29 km/h 79% 0 mm 142 W/m2
09:34 12 °C 8 °C 1006.77 hPa WNW 27 km/h 26 km/h 79% 0 mm 183 W/m2
09:39 12 °C 8 °C 1006.77 hPa WNW 28 km/h 29 km/h 77% 0 mm 281 W/m2
09:44 12 °C 8 °C 1006.74 hPa WNW 21 km/h 35 km/h 76% 0 mm 311 W/m2
09:49 12 °C 8 °C 1006.64 hPa WNW 19 km/h 29 km/h 75% 0 mm 338 W/m2
09:54 12 °C 8 °C 1006.57 hPa WNW 17 km/h 19 km/h 75% 0 mm 353 W/m2
09:59 13 °C 8 °C 1006.77 hPa WNW 16 km/h 23 km/h 74% 0 mm 353 W/m2
10:04 13 °C 8 °C 1006.98 hPa WNW 18 km/h 23 km/h 73% 0 mm 339 W/m2
10:09 13 °C 8 °C 1007.08 hPa WNW 17 km/h 24 km/h 73% 0 mm 338 W/m2
10:14 13 °C 8 °C 1007.11 hPa WNW 25 km/h 27 km/h 73% 0 mm 455 W/m2
10:19 13 °C 8 °C 1007.11 hPa WNW 30 km/h 32 km/h 72% 0 mm 455 W/m2
10:24 12 °C 7 °C 1006.91 hPa WNW 30 km/h 37 km/h 72% 0 mm 334 W/m2
10:29 12 °C 8 °C 1007.08 hPa WNW 24 km/h 42 km/h 74% 0 mm 374 W/m2
10:34 12 °C 7 °C 1007.15 hPa WNW 32 km/h 42 km/h 72% 0 mm 406 W/m2
10:39 12 °C 7 °C 1007.15 hPa WNW 37 km/h 39 km/h 71% 0 mm 418 W/m2
10:44 12 °C 7 °C 1007.01 hPa WNW 33 km/h 47 km/h 70% 0 mm 431 W/m2
10:49 12 °C 7 °C 1007.01 hPa WNW 30 km/h 32 km/h 68% 0 mm 427 W/m2
10:54 13 °C 7 °C 1006.87 hPa WNW 24 km/h 40 km/h 68% 0 mm 417 W/m2
10:59 13 °C 7 °C 1006.94 hPa WNW 32 km/h 32 km/h 67% 0 mm 434 W/m2
11:04 13 °C 7 °C 1006.94 hPa WNW 29 km/h 45 km/h 67% 0 mm 434 W/m2
11:09 13 °C 7 °C 1006.94 hPa WNW 37 km/h 35 km/h 67% 0 mm 469 W/m2
11:14 13 °C 7 °C 1006.84 hPa WNW 31 km/h 50 km/h 67% 0 mm 475 W/m2
11:19 13 °C 7 °C 1006.81 hPa WNW 23 km/h 37 km/h 68% 0 mm 496 W/m2
11:24 13 °C 7 °C 1006.87 hPa WNW 23 km/h 29 km/h 68% 0 mm 461 W/m2
11:29 13 °C 7 °C 1006.84 hPa WNW 28 km/h 32 km/h 67% 0 mm 378 W/m2
11:34 13 °C 7 °C 1006.98 hPa WNW 25 km/h 37 km/h 67% 0 mm 373 W/m2
11:39 13 °C 7 °C 1006.98 hPa WNW 25 km/h 27 km/h 67% 0 mm 436 W/m2
11:44 13 °C 7 °C 1006.94 hPa WNW 27 km/h 32 km/h 66% 0 mm 422 W/m2
11:49 13 °C 7 °C 1007.04 hPa WNW 32 km/h 32 km/h 65% 0 mm 436 W/m2
11:54 13 °C 7 °C 1007.04 hPa WNW 23 km/h 39 km/h 65% 0 mm 446 W/m2
11:59 14 °C 7 °C 1007.01 hPa WNW 32 km/h 27 km/h 63% 0 mm 596 W/m2
12:04 14 °C 7 °C 1006.98 hPa WNW 34 km/h 40 km/h 61% 0 mm 571 W/m2
12:09 14 °C 6 °C 1006.98 hPa WNW 31 km/h 39 km/h 60% 0 mm 568 W/m2
12:14 14 °C 6 °C 1007.01 hPa WNW 22 km/h 35 km/h 61% 0 mm 554 W/m2
12:19 14 °C 7 °C 1007.04 hPa WNW 26 km/h 27 km/h 63% 0 mm 629 W/m2
12:24 14 °C 7 °C 1007.08 hPa WNW 23 km/h 29 km/h 64% 0 mm 629 W/m2
12:29 14 °C 7 °C 1006.94 hPa WNW 22 km/h 27 km/h 65% 0 mm 425 W/m2
12:34 14 °C 7 °C 1006.74 hPa WNW 24 km/h 27 km/h 66% 0 mm 503 W/m2
12:39 14 °C 8 °C 1006.84 hPa WNW 28 km/h 35 km/h 66% 0 mm 503 W/m2
12:44 14 °C 7 °C 1006.87 hPa WNW 32 km/h 32 km/h 65% 0 mm 411 W/m2
12:49 14 °C 7 °C 1006.87 hPa WNW 29 km/h 40 km/h 65% 0 mm 431 W/m2
12:54 14 °C 7 °C 1006.87 hPa WNW 32 km/h 40 km/h 65% 0 mm 418 W/m2
12:59 14 °C 7 °C 1006.84 hPa WNW 29 km/h 37 km/h 66% 0 mm 436 W/m2
13:04 13 °C 7 °C 1006.81 hPa WNW 32 km/h 32 km/h 65% 0 mm 431 W/m2
13:09 14 °C 7 °C 1006.77 hPa WNW 32 km/h 39 km/h 65% 0 mm 492 W/m2
13:14 14 °C 7 °C 1006.81 hPa WNW 29 km/h 37 km/h 65% 0 mm 531 W/m2
13:19 14 °C 7 °C 1006.84 hPa WNW 27 km/h 32 km/h 65% 0 mm 543 W/m2
13:24 14 °C 8 °C 1006.84 hPa WNW 26 km/h 29 km/h 66% 0 mm 506 W/m2
13:29 14 °C 7 °C 1006.77 hPa WNW 34 km/h 34 km/h 65% 0 mm 404 W/m2
13:34 14 °C 7 °C 1006.81 hPa WNW 35 km/h 47 km/h 66% 0 mm 418 W/m2
13:39 14 °C 7 °C 1006.81 hPa WNW 34 km/h 47 km/h 65% 0 mm 404 W/m2
13:44 13 °C 7 °C 1006.77 hPa WNW 37 km/h 40 km/h 66% 0 mm 334 W/m2
13:49 13 °C 7 °C 1006.81 hPa WNW 32 km/h 43 km/h 67% 0 mm 330 W/m2
13:54 13 °C 8 °C 1006.74 hPa WNW 38 km/h 50 km/h 68% 0 mm 295 W/m2
13:59 13 °C 8 °C 1006.77 hPa WNW 27 km/h 50 km/h 69% 0 mm 371 W/m2
14:04 13 °C 8 °C 1006.74 hPa WNW 30 km/h 37 km/h 68% 0 mm 387 W/m2
14:09 13 °C 8 °C 1006.57 hPa WNW 30 km/h 37 km/h 68% 0 mm 418 W/m2
14:14 13 °C 8 °C 1006.47 hPa WNW 31 km/h 34 km/h 68% 0 mm 422 W/m2
14:19 13 °C 8 °C 1006.4 hPa WNW 39 km/h 35 km/h 68% 0 mm 394 W/m2
14:24 13 °C 8 °C 1006.4 hPa WNW 32 km/h 43 km/h 69% 0 mm 378 W/m2
14:29 13 °C 8 °C 1006.27 hPa WNW 29 km/h 35 km/h 69% 0 mm 390 W/m2
14:34 13 °C 8 °C 1006.3 hPa WNW 45 km/h 42 km/h 68% 0 mm 496 W/m2
14:39 13 °C 8 °C 1006.3 hPa WNW 30 km/h 50 km/h 69% 0 mm 515 W/m2
14:44 14 °C 8 °C 1006.23 hPa WNW 26 km/h 37 km/h 69% 0 mm 510 W/m2
14:49 14 °C 8 °C 1006.2 hPa WNW 37 km/h 32 km/h 68% 0 mm 526 W/m2
14:54 14 °C 8 °C 1006.13 hPa WNW 42 km/h 56 km/h 66% 0 mm 615 W/m2
14:59 14 °C 8 °C 1006.1 hPa WNW 40 km/h 53 km/h 65% 0 mm 615 W/m2
15:04 14 °C 8 °C 1005.99 hPa WNW 31 km/h 48 km/h 65% 0 mm 615 W/m2
15:09 14 °C 8 °C 1006.03 hPa WNW 33 km/h 43 km/h 64% 0 mm 515 W/m2
15:14 14 °C 8 °C 1006.16 hPa WNW 33 km/h 42 km/h 65% 0 mm 517 W/m2
15:19 14 °C 8 °C 1006.16 hPa WNW 44 km/h 43 km/h 65% 0 mm 207 W/m2
15:24 14 °C 8 °C 1006.13 hPa WNW 37 km/h 60 km/h 65% 0 mm 570 W/m2
15:29 14 °C 8 °C 1006.2 hPa WNW 42 km/h 50 km/h 66% 0 mm 480 W/m2
15:34 14 °C 8 °C 1006.06 hPa WNW 41 km/h 50 km/h 67% 0 mm 464 W/m2
15:39 14 °C 8 °C 1006.13 hPa WNW 33 km/h 50 km/h 68% 0 mm 464 W/m2
15:44 14 °C 8 °C 1006.13 hPa WNW 33 km/h 39 km/h 67% 0 mm 489 W/m2
15:49 14 °C 8 °C 1006.1 hPa WNW 38 km/h 42 km/h 66% 0 mm 461 W/m2
15:54 14 °C 8 °C 1005.99 hPa WNW 30 km/h 48 km/h 66% 0 mm 478 W/m2
15:59 14 °C 8 °C 1005.99 hPa WNW 37 km/h 48 km/h 66% 0 mm 448 W/m2
16:04 14 °C 8 °C 1006.1 hPa WNW 34 km/h 45 km/h 65% 0 mm 439 W/m2
16:09 14 °C 8 °C 1006.13 hPa WNW 34 km/h 42 km/h 66% 0 mm 439 W/m2
16:14 14 °C 8 °C 1006.13 hPa SW 41 km/h 48 km/h 67% 0 mm 418 W/m2
16:19 14 °C 8 °C 1005.96 hPa WNW 30 km/h 56 km/h 68% 0 mm 396 W/m2
16:24 14 °C 8 °C 1006.06 hPa WNW 33 km/h 34 km/h 67% 0 mm 387 W/m2
16:29 14 °C 8 °C 1005.96 hPa WNW 32 km/h 50 km/h 67% 0 mm 387 W/m2
16:34 14 °C 8 °C 1006.13 hPa WNW 38 km/h 47 km/h 68% 0 mm 431 W/m2
16:39 14 °C 8 °C 1006.1 hPa WNW 28 km/h 45 km/h 69% 0 mm 420 W/m2
16:44 14 °C 8 °C 1006.13 hPa WNW 36 km/h 42 km/h 68% 0 mm 396 W/m2
16:49 14 °C 8 °C 1006.23 hPa WNW 30 km/h 42 km/h 69% 0 mm 362 W/m2
16:54 14 °C 8 °C 1006.13 hPa WNW 37 km/h 43 km/h 69% 0 mm 332 W/m2
16:59 14 °C 8 °C 1006.1 hPa WNW 34 km/h 42 km/h 68% 0 mm 318 W/m2
17:04 14 °C 8 °C 1006.1 hPa WNW 38 km/h 42 km/h 68% 0 mm 316 W/m2
17:09 14 °C 8 °C 1006.13 hPa WNW 30 km/h 47 km/h 68% 0 mm 297 W/m2
17:14 14 °C 8 °C 1006.1 hPa WNW 35 km/h 32 km/h 68% 0 mm 279 W/m2
17:19 14 °C 8 °C 1006.1 hPa WNW 37 km/h 50 km/h 68% 0 mm 271 W/m2
17:24 14 °C 8 °C 1006.06 hPa WNW 43 km/h 45 km/h 69% 0 mm 253 W/m2
17:29 14 °C 8 °C 1005.99 hPa WNW 39 km/h 56 km/h 69% 0 mm 243 W/m2
17:34 13 °C 8 °C 1006.03 hPa WNW 38 km/h 47 km/h 69% 0 mm 230 W/m2
17:39 13 °C 8 °C 1005.99 hPa WNW 33 km/h 43 km/h 69% 0 mm 225 W/m2
17:44 13 °C 8 °C 1005.93 hPa WNW 37 km/h 37 km/h 69% 0 mm 213 W/m2
17:49 13 °C 8 °C 1005.83 hPa WNW 34 km/h 58 km/h 70% 0 mm 202 W/m2
17:54 13 °C 8 °C 1005.93 hPa WNW 32 km/h 45 km/h 69% 0 mm 190 W/m2
17:59 13 °C 8 °C 1005.89 hPa WNW 44 km/h 42 km/h 68% 0 mm 179 W/m2
18:04 13 °C 8 °C 1005.86 hPa WNW 40 km/h 76 km/h 67% 0 mm 169 W/m2
18:09 13 °C 7 °C 1005.86 hPa WNW 41 km/h 53 km/h 66% 0 mm 160 W/m2
18:14 13 °C 7 °C 1005.96 hPa WNW 41 km/h 48 km/h 66% 0 mm 149 W/m2
18:19 13 °C 7 °C 1005.86 hPa WNW 41 km/h 42 km/h 66% 0 mm 141 W/m2
18:24 13 °C 7 °C 1005.86 hPa WNW 34 km/h 51 km/h 66% 0 mm 128 W/m2
18:29 13 °C 7 °C 1005.83 hPa WNW 38 km/h 45 km/h 66% 0 mm 123 W/m2
18:34 13 °C 7 °C 1005.79 hPa WNW 40 km/h 43 km/h 66% 0 mm 113 W/m2
18:39 13 °C 7 °C 1005.83 hPa WNW 38 km/h 45 km/h 66% 0 mm 107 W/m2
18:44 13 °C 7 °C 1005.89 hPa WNW 29 km/h 42 km/h 67% 0 mm 70 W/m2
18:49 13 °C 7 °C 1005.86 hPa WNW 32 km/h 34 km/h 68% 0 mm 44 W/m2
18:54 13 °C 7 °C 1005.83 hPa WNW 35 km/h 39 km/h 68% 0 mm 39 W/m2
18:59 13 °C 7 °C 1005.83 hPa WNW 35 km/h 53 km/h 69% 0 mm 40 W/m2
19:04 13 °C 7 °C 1005.79 hPa WNW 35 km/h 39 km/h 69% 0 mm 53 W/m2
19:09 13 °C 7 °C 1005.83 hPa WNW 29 km/h 48 km/h 69% 0 mm 54 W/m2
19:14 13 °C 7 °C 1005.89 hPa WNW 39 km/h 35 km/h 70% 0 mm 44 W/m2
19:19 13 °C 7 °C 1005.86 hPa WNW 40 km/h 48 km/h 70% 0 mm 37 W/m2
19:24 12 °C 8 °C 1005.83 hPa WNW 33 km/h 45 km/h 72% 0 mm 28 W/m2
19:29 12 °C 8 °C 1005.86 hPa WNW 36 km/h 37 km/h 73% 0 mm 19 W/m2
19:34 12 °C 7 °C 1005.86 hPa W 36 km/h 43 km/h 73% 0 mm 16 W/m2
19:39 12 °C 7 °C 1005.86 hPa WNW 38 km/h 43 km/h 72% 0 mm 12 W/m2
19:44 12 °C 7 °C 1005.86 hPa WNW 40 km/h 58 km/h 71% 0 mm 11 W/m2
19:49 12 °C 7 °C 1005.99 hPa WNW 37 km/h 47 km/h 71% 0 mm 7 W/m2
19:54 12 °C 7 °C 1005.99 hPa WNW 39 km/h 47 km/h 71% 0 mm 5 W/m2
19:59 12 °C 7 °C 1005.96 hPa WNW 35 km/h 48 km/h 71% 0 mm 0 W/m2
20:04 12 °C 7 °C 1006.13 hPa WNW 37 km/h 43 km/h 71% 0 mm 0 W/m2
20:09 12 °C 7 °C 1006.23 hPa WNW 32 km/h 47 km/h 72% 0 mm 0 W/m2
20:14 12 °C 7 °C 1006.2 hPa WNW 32 km/h 42 km/h 72% 0 mm 0 W/m2
20:19 12 °C 7 °C 1006.16 hPa WNW 39 km/h 37 km/h 72% 0 mm 0 W/m2
20:24 12 °C 7 °C 1006.13 hPa WNW 44 km/h 47 km/h 72% 0 mm 0 W/m2
20:29 12 °C 7 °C 1006.33 hPa WNW 33 km/h 56 km/h 72% 0 mm 0 W/m2
20:34 12 °C 7 °C 1006.43 hPa WNW 36 km/h 43 km/h 71% 0 mm 0 W/m2
20:39 12 °C 7 °C 1006.54 hPa WNW 33 km/h 45 km/h 71% 0 mm 0 W/m2
20:44 12 °C 7 °C 1006.6 hPa WNW 31 km/h 37 km/h 71% 0 mm 0 W/m2
20:49 12 °C 7 °C 1006.77 hPa WNW 34 km/h 45 km/h 71% 0 mm 0 W/m2
20:54 12 °C 7 °C 1006.84 hPa WNW 32 km/h 37 km/h 71% 0 mm 0 W/m2
20:59 12 °C 7 °C 1006.98 hPa WNW 31 km/h 35 km/h 71% 0 mm 0 W/m2
21:04 12 °C 7 °C 1006.98 hPa WNW 31 km/h 42 km/h 71% 0 mm 0 W/m2
Compliments of Weather Underground - 2 mb